Regional Weather Roundup
Issued by NWS

Home | Current Version | Previous Version | Text Only | Print | Product List | Glossary Off
Versions: 1 2 3 4 5 6 7 8 9 10 11 12 13 14 15 16 17 18 19 20 21 22 23 24 25 26 27 28 29 30 31 32 33 34 35 36 37 38 39 40 41 42 43 44 45 46 47 48 49 50

000
ASUS43 KMKX 300721
RWRWI

WISCONSIN REGIONAL WEATHER ROUNDUP
NATIONAL WEATHER SERVICE MILWAUKEE/SULLIVAN WI
200 AM CDT SUN APR 30 2017

NOTE: "FAIR" INDICATES FEW OR NO CLOUDS BELOW 12,000 FEET WITH NO
SIGNIFICANT WEATHER AND/OR OBSTRUCTIONS TO VISIBILITY.

WIZ001-002-006>008-014>016-023>028-300800-
NORTHWEST WISCONSIN

CITY           SKY/WX    TMP DP  RH WIND       PRES   REMARKS
SUPERIOR ARPT  CLOUDY    37  23  56 NE7       30.27F WCI  31
ASHLAND        MOCLDY    35  26  69 NE8       30.25F WCI  29
HAYWARD        CLOUDY    40  19  43 NE7       30.21F
SIREN          MOCLDY    41  20  43 CALM      30.19F
CUMBERLAND     CLOUDY    39  23  52 NE13      30.16S WCI  32
RICE LAKE      CLOUDY    42  24  49 N9        30.18F
CHETEK         CLOUDY    42  24  49 NE8       30.16F
LADYSMITH      CLOUDY    41  22  47 NE10      30.17F
EAU CLAIRE     CLOUDY    45  26  47 NE12      30.14F
MENOMONIE      CLOUDY    45  26  47 NE9G16    30.15R
NEW RICHMOND   CLOUDY    42  25  50 NE12      30.15F
OSCEOLA        CLOUDY    44  26  50 NE9       30.19S
$$

WIZ003>005-009-010-017-018-300800-
NORTH CENTRAL WISCONSIN

CITY           SKY/WX    TMP DP  RH WIND       PRES   REMARKS
MANITOWISH WTR NOT AVBL
ARBOR VITAE    CLOUDY    39  20  46 NE7       30.18F WCI  34
WOODRUFF       CLOUDY    39  20  46 NE7       30.18F WCI  34
RHINELANDER    CLOUDY    39  19  44 E12       30.18F WCI  32
EAGLE RIVER    CLOUDY    36  17  46 E8        30.19F WCI  30
LAND O LAKES   CLOUDY    36  19  50 E5        30.23S WCI  32
PHILLIPS       MOCLDY    38  22  53 NE8       30.17F WCI  32
TOMAHAWK       CLOUDY    39  19  44 NE8       30.18F WCI  33
MEDFORD        CLOUDY    40  22  49 NE12      30.15R WCI  33
MERRILL        CLOUDY    40  21  45 E9G17     30.17S WCI  34
$$

WIZ029-030-035-036-043>047-300800-
CENTRAL WISCONSIN

CITY           SKY/WX    TMP DP  RH WIND       PRES   REMARKS
WAUSAU         CLOUDY    40  19  43 E13G20    30.16S WCI  32
MOSINEE        CLOUDY    39  19  45 E12       30.18R WCI  32
MARSHFIELD     CLOUDY    42  20  41 E14       30.14R
STEVENS POINT  CLOUDY    40  22  48 E12G18    30.18R WCI  33
WAUPACA        CLOUDY    44  27  52 NE9       30.19R
WAUTOMA        LGT RAIN  41  32  70 NE13G20   30.16F
WISC RAPIDS    CLOUDY    43  22  43 E12       30.16S
CAMP DOUGLAS   CLOUDY    43  29  58 E16       30.10F
$$

WIZ011>013-019>022-031-037>040-048>050-300800-
NORTHEAST WISCONSIN

CITY           SKY/WX    TMP DP  RH WIND       PRES   REMARKS
ANTIGO         CLOUDY    37  22  55 E14       30.18R WCI  28
SHAWANO        CLOUDY    42  27  55 NE10      30.20R
OCONTO         CLOUDY    40  28  60 NE9G18    30.18F WCI  34
STURGEON BAY   CLOUDY    41  28  60 NE10      30.20R
GREEN BAY      LGT RAIN  41  37  86 NE10      30.20R FOG
MANITOWOC      CLOUDY    39  36  89 N8        30.18S WCI  33
APPLETON       LGT RAIN  37  32  81 NE12      30.15F WCI  30
CLINTONVILLE   CLOUDY    41  25  52 NE10      30.20R
OSHKOSH        LGT RAIN  39  36  89 NE12      30.14F WCI  32
$$

WIZ032>034-041-042-053>061-300800-
SOUTHWEST WISCONSIN

CITY           SKY/WX    TMP DP  RH WIND       PRES   REMARKS
LA CROSSE      CLOUDY    47  27  45 NE6G17    30.11F
SPARTA         CLOUDY    44  29  56 NE17      30.12F
VIROQUA        CLOUDY    42  29  61 E13G22    30.07F
BOSCOBEL       CLOUDY    42  37  82 VRB7G20   30.06F
PRAIRIE DU CHI CLOUDY    43  33  68 NE5       30.04F
PLATTEVILLE    CLOUDY    40  40  99 NE16      30.00F WCI  31
$$

WIZ056-057-062-063-064-067-068-300800-
SOUTH CENTRAL WISCONSIN

CITY           SKY/WX    TMP DP  RH WIND       PRES   REMARKS
REEDSBURG      NOT AVBL
BARABOO/DELLS  DRIZZLE   37  35  92 NE10      30.09F WCI  30
LONE ROCK      LGT RAIN  40  36  86 NE13      30.06F FOG     WCI  32
MINERAL POINT  CLOUDY    39  39 100 NE15G22   30.02S WCI  31
MADISON        CLOUDY    39  37  92 N15       30.06F WCI  31
MIDDLETON      CLOUDY    40  39  95 NE16      30.06S WCI  32
WATERTOWN      CLOUDY    39  39 100 NE14      30.05F WCI  31
MONROE         CLOUDY    39  39 100 NE18      30.00R WCI  30
JANESVILLE     CLOUDY    43  43 100 E22       29.99F
$$

WIZ051-052-058>065-066-070>072-300800-
SOUTHEAST WISCONSIN

CITY           SKY/WX    TMP DP  RH WIND       PRES   REMARKS
MILWAUKEE      LGT RAIN  41  40  96 NE16G24   30.06F FOG
WAUKESHA       LGT SNOW  37  36  93 NE14      30.06F WCI  29
MILWAUKEE/TIMM DRIZZLE   37  36  93 NE15G21   30.07F WCI  28
RACINE         CLOUDY    41  39  93 NE20G26   30.06F
KENOSHA        LGT RAIN  42  40  92 NE18G26   30.02F FOG
FOND DU LAC    LGT RAIN  39  34  82 NE14      30.13F WCI  31
SHEBOYGAN      LGT RAIN  39  37  92 NE14      30.14F WCI  31
WEST BEND      DRIZZLE   37  37 100 NE17      30.08F WCI  28
JUNEAU         RAIN      37  36  95 N16G24    30.07F WCI  28
$$

LSZ147-162-300800-
LAKE SUPERIOR

STATION/POSITION TIME  TEMP    WIND        PRES    WAVE
                       AIR SEA DIR/SP/G            HT/PER
                 (UTC) (F)     (DEG/KT/KT) (MB)    (FT/S)
DEVILS ISLAND    0700   37      40/ 13/ 14 1025.9F
PORT WING        0640   37      40/ 11/ 13 1025.1F
SAXON HARBOR     0630   37      40/  5/  6 1024.7F
$$

LMZ867-665-643>646-300800-
LAKE MICHIGAN

STATION/POSITION TIME  TEMP    WIND        PRES    WAVE
                       AIR SEA DIR/SP/G            HT/PER
                 (UTC) (F)     (DEG/KT/KT) (MB)    (FT/S)
CHAMBERS ISLAND  0640   39      10/ 16/ 21 1022.0S
N MID LAKE BUOY  0650   38 37   30/ 17/ 19 1022.9F   3/ 4
NORTHPORT PIER   0640   40      20/ 12/ 18 1022.4S
KEWAUNEE LAKESHO 0654   40      40/ 15/ 19 1021.9R
SHEBOYGAN LAKESH 0700   40      30/ 17/ 19 1021.0F
PORT WASHINGTON  0700   40      20/ 13/ 21 1020.0
MILWAUKEE LAKESH 0700   40      20/ 19/ 22   N/A
S MID LAKE BUOY  0650   41 41   40/ 17/ 21 1016.3R   6/ 6
KENOSHA   LAKESH 0700   41      40/ 22/ 25 1016.9
$$

TC  - TEMPERATURE IN CELSIUS
VSB - VISIBILITY IN STATUTE MILES
WCI - WIND CHILL INDEX
HX  - HEAT INDEX




USA.gov is the U.S. government's official web portal to all federal, state and local government web resources and services.